Change the Weather History Date:

Thursday, May 16, 2013

  Actual Average Record
Temperature  
Mean Temperature 70 °F -  
Max Temperature 78 °F 70 °F 84 °F (1998)
Min Temperature 63 °F 49 °F 36 °F (2014)
Cooling Degree Days 6    
Growing Degree Days 20 (Base 50)    
Moisture  
Dew Point 58 °F    
Average Humidity 67    
Maximum Humidity 93    
Minimum Humidity 41    
Precipitation  
Precipitation 0.06 in - - ()
Sea Level Pressure  
Sea Level Pressure 29.88 in    
Wind  
Wind Speed 8 mph (WSW)    
Max Wind Speed 13 mph    
Max Gust Speed 21 mph    
Visibility 10 miles    
Events Rain , Thunderstorm    
Averages and records for this station are not official NWS values.
T = Trace of Precipitation, MM = Missing Value Source: NWS Daily Summary

Daily Weather History Graph

Daily Weather History Graph

Search for Another Location

Airport or City:

Trip Planner

Search our weather history database for the weather conditions in past years. The results will help you decide how hot, cold, wet, or windy it might be!

Date:

Astronomy

May. 16, 2013 Rise Set
Actual Time 6:15 AM EDT 8:42 PM EDT
Civil Twilight 5:44 AM EDT 9:13 PM EDT
Nautical Twilight 5:06 AM EDT 9:51 PM EDT
Astronomical Twilight 4:24 AM EDT 10:34 PM EDT
Moon 11:48 AM EDT (5/16) 1:02 AM EDT (5/16)
Length of Visible Light 15h 28m
Length of Day
14h 26m
Waxing Crescent, 35% of the Moon is Illuminated
May 16
Waxing Crescent
May 18
First Quarter
May 25
Full
May 31
Last Quarter
Jun 8
New

Hourly Weather History & Observations

Time (EDT) Temp. Dew Point Humidity Pressure Visibility Wind Dir Wind Speed Gust Speed Precip Events Conditions
12:53 AM 72.0 °F 57.0 °F 59% 29.82 in 10.0 mi WSW 11.5 mph 20.7 mph 0.00 in Rain Light Rain
1:05 AM 71.6 °F 57.2 °F 60% 29.84 in 10.0 mi WSW 10.4 mph - 0.00 in Rain , Thunderstorm Light Rain
1:49 AM 68.0 °F 60.8 °F 78% 29.83 in 9.0 mi SW 9.2 mph - 0.04 in Rain Light Rain
1:53 AM 68.0 °F 60.1 °F 76% 29.81 in 10.0 mi SW 11.5 mph - 0.04 in Rain Light Rain
2:53 AM 68.0 °F 61.0 °F 78% 29.80 in 10.0 mi WSW 10.4 mph - 0.02 in   Mostly Cloudy
3:33 AM 69.8 °F 60.8 °F 73% 29.83 in 10.0 mi West 12.7 mph - N/A Thunderstorm Overcast
3:53 AM 69.1 °F 60.1 °F 73% 29.82 in 10.0 mi West 9.2 mph - N/A Thunderstorm Overcast
4:38 AM 68.0 °F 60.8 °F 78% 29.84 in 10.0 mi West 8.1 mph - N/A   Mostly Cloudy
4:53 AM 68.0 °F 61.0 °F 78% 29.82 in 10.0 mi West 6.9 mph - N/A   Partly Cloudy
5:53 AM 64.9 °F 62.1 °F 90% 29.83 in 10.0 mi WNW 5.8 mph - N/A   Partly Cloudy
6:53 AM 64.0 °F 62.1 °F 93% 29.87 in 6.0 mi West 4.6 mph - 0.00 in   Partly Cloudy
7:53 AM 66.0 °F 61.0 °F 84% 29.88 in 9.0 mi NW 4.6 mph - N/A   Mostly Cloudy
8:53 AM 69.1 °F 55.9 °F 63% 29.89 in 10.0 mi WNW 3.5 mph - N/A   Scattered Clouds
9:53 AM 72.0 °F 51.1 °F 48% 29.90 in 10.0 mi Calm Calm - N/A   Scattered Clouds
10:53 AM 75.0 °F 50.0 °F 41% 29.90 in 10.0 mi Calm Calm - N/A   Clear
11:53 AM 73.0 °F 54.0 °F 51% 29.91 in 10.0 mi Calm Calm - 0.00 in Rain Light Rain
12:53 PM 75.0 °F 51.1 °F 43% 29.92 in 10.0 mi WNW 4.6 mph - 0.00 in   Scattered Clouds
1:53 PM 73.9 °F 55.9 °F 53% 29.90 in 10.0 mi Calm Calm - N/A   Clear
2:53 PM 72.0 °F 57.9 °F 61% 29.91 in 10.0 mi SSW 5.8 mph - N/A   Mostly Cloudy
3:53 PM 75.9 °F 57.9 °F 54% 29.93 in 10.0 mi SSW 10.4 mph - N/A   Clear
4:53 PM 77.0 °F 53.1 °F 43% 29.93 in 10.0 mi Variable 4.6 mph - N/A   Clear
6:53 PM 75.9 °F 55.0 °F 48% 29.91 in 10.0 mi West 3.5 mph - N/A   Clear
7:53 PM 73.0 °F 57.9 °F 59% 29.92 in 10.0 mi South 4.6 mph - N/A   Clear
8:53 PM 70.0 °F 59.0 °F 68% 29.94 in 10.0 mi WSW 3.5 mph - N/A   Clear
9:53 PM 66.0 °F 60.1 °F 81% 29.96 in 10.0 mi Calm Calm - N/A   Clear
10:53 PM 66.9 °F 63.0 °F 87% 29.97 in 6.0 mi South 6.9 mph - N/A   Clear
11:53 PM 63.0 °F 60.1 °F 90% 29.98 in 7.0 mi SSW 4.6 mph - N/A   Clear